| time (UTC) | temp F | wind direction | speed knots | gust knots | rain 1hr in | rain 24hr in | rain mn in | humidity % | barometer mb |
| 20260507201726 | 62 | 323 | 7.8 | 11.3 | 0.00 | 0.00 | 0.00 | 34 | 1050.0 |
| 20260507201224 | 62 | 276 | 2.6 | 5.2 | 0.00 | 0.00 | 0.00 | 31 | 1050.1 |
| 20260507200720 | 63 | 255 | 4.3 | 7.0 | 0.00 | 0.00 | 0.00 | 35 | 1049.9 |
| 20260507200216 | 63 | 242 | 5.2 | 7.0 | 0.00 | 0.00 | 0.00 | 36 | 1050.1 |
| 20260507195712 | 63 | 272 | 2.6 | 3.5 | 0.00 | 0.00 | 0.00 | 42 | 1050.1 |
| 20260507195210 | 62 | 321 | 0.0 | 3.5 | 0.00 | 0.00 | 0.00 | 32 | 1050.4 |
| 20260507194706 | 62 | 300 | 3.5 | 7.8 | 0.00 | 0.00 | 0.00 | 33 | 1050.5 |
| 20260507194202 | 62 | 282 | 1.7 | 3.5 | 0.00 | 0.00 | 0.00 | 36 | 1050.4 |
| 20260507193659 | 62 | 233 | 1.7 | 5.2 | 0.00 | 0.00 | 0.00 | 32 | 1050.3 |
| 20260507193156 | 62 | 287 | 0.9 | 2.6 | 0.00 | 0.00 | 0.00 | 37 | 1050.4 |
| 20260507192652 | 61 | 321 | 4.3 | 5.2 | 0.00 | 0.00 | 0.00 | 31 | 1050.3 |
| 20260507192149 | 61 | 282 | 3.5 | 7.8 | 0.00 | 0.00 | 0.00 | 32 | 1050.3 |
| 20260507191645 | 61 | 313 | 5.2 | 11.3 | 0.00 | 0.00 | 0.00 | 36 | 1050.2 |
| 20260507191142 | 61 | 288 | 3.5 | 6.1 | 0.00 | 0.00 | 0.00 | 36 | 1050.5 |
| 20260507190639 | 61 | 298 | 2.6 | 3.5 | 0.00 | 0.00 | 0.00 | 41 | 1050.4 |
| 20260507190138 | 61 | 311 | 6.1 | 8.7 | 0.00 | 0.00 | 0.00 | 37 | 1050.7 |
| 20260507185636 | 61 | 242 | 3.5 | 7.8 | 0.00 | 0.00 | 0.00 | 37 | 1050.7 |
| 20260507185132 | 61 | 253 | 3.5 | 7.8 | 0.00 | 0.00 | 0.00 | 36 | 1050.5 |
| 20260507184630 | 60 | 272 | 5.2 | 11.3 | 0.00 | 0.00 | 0.00 | 39 | 1051.0 |
| 20260507184128 | 61 | 293 | 9.6 | 12.2 | 0.00 | 0.00 | 0.00 | 37 | 1050.8 |
| 20260507183624 | 61 | 286 | 3.5 | 7.0 | 0.00 | 0.00 | 0.00 | 40 | 1050.7 |
| 20260507183121 | 60 | 317 | 12.2 | 16.5 | 0.00 | 0.00 | 0.00 | 39 | 1050.4 |
| 20260507182617 | 60 | 283 | 4.3 | 8.7 | 0.00 | 0.00 | 0.00 | 41 | 1050.4 |
| 20260507182113 | 60 | 336 | 9.6 | 11.3 | 0.00 | 0.00 | 0.00 | 39 | 1050.8 |
| 20260507181610 | 60 | 329 | 5.2 | 7.8 | 0.00 | 0.00 | 0.00 | 40 | 1050.8 |
| 20260507181106 | 60 | 320 | 7.8 | 8.7 | 0.00 | 0.00 | 0.00 | 49 | 1050.9 |
| 20260507180603 | 59 | 323 | 6.1 | 7.0 | 0.00 | 0.00 | 0.00 | 42 | 1050.7 |
| 20260507180100 | 60 | 316 | 9.6 | 12.2 | 0.00 | 0.00 | 0.00 | 44 | 1050.8 |
| 20260507175556 | 59 | 314 | 1.7 | 5.2 | 0.00 | 0.00 | 0.00 | 49 | 1051.0 |
| 20260507175054 | 59 | 324 | 5.2 | 7.8 | 0.00 | 0.00 | 0.00 | 44 | 1050.7 |
| 20260507174551 | 59 | 306 | 4.3 | 8.7 | 0.00 | 0.00 | 0.00 | 44 | 1051.0 |
| 20260507174048 | 59 | 313 | 7.0 | 9.6 | 0.00 | 0.00 | 0.00 | 43 | 1051.0 |
| 20260507173545 | 60 | 272 | 10.4 | 12.2 | 0.00 | 0.00 | 0.00 | 44 | 1050.9 |
| 20260507173042 | 59 | 334 | 7.8 | 8.7 | 0.00 | 0.00 | 0.00 | 46 | 1050.9 |
| 20260507172538 | 59 | 291 | 7.0 | 7.8 | 0.00 | 0.00 | 0.00 | 43 | 1051.1 |
| 20260507172035 | 59 | 332 | 5.2 | 7.8 | 0.00 | 0.00 | 0.00 | 43 | 1051.0 |
| 20260507171530 | 59 | 2 | 7.0 | 8.7 | 0.00 | 0.00 | 0.00 | 47 | 1051.3 |
| 20260507171028 | 59 | 323 | 7.0 | 11.3 | 0.00 | 0.00 | 0.00 | 45 | 1051.3 |
| 20260507170525 | 59 | 253 | 1.7 | 6.1 | 0.00 | 0.00 | 0.00 | 46 | 1051.4 |
| 20260507170022 | 59 | 320 | 2.6 | 7.0 | 0.00 | 0.00 | 0.00 | 41 | 1051.6 |
| 20260507165517 | 59 | 328 | 9.6 | 13.0 | 0.00 | 0.00 | 0.00 | 44 | 1051.5 |
| 20260507165014 | 58 | 285 | 6.1 | 9.6 | 0.00 | 0.00 | 0.00 | 44 | 1051.5 |
| 20260507164510 | 58 | 290 | 3.5 | 7.8 | 0.00 | 0.00 | 0.00 | 46 | 1051.8 |
| 20260507164007 | 59 | 312 | 5.2 | 7.0 | 0.00 | 0.00 | 0.00 | 47 | 1052.0 |
| 20260507163504 | 58 | 284 | 3.5 | 6.1 | 0.00 | 0.00 | 0.00 | 45 | 1051.5 |
| 20260507163002 | 58 | 283 | 7.8 | 8.7 | 0.00 | 0.00 | 0.00 | 40 | 1051.6 |
| 20260507162457 | 59 | 277 | 5.2 | 7.8 | 0.00 | 0.00 | 0.00 | 47 | 1051.7 |
| 20260507161954 | 58 | 343 | 4.3 | 6.1 | 0.00 | 0.00 | 0.00 | 49 | 1051.7 |
| 20260507161450 | 58 | 339 | 5.2 | 11.3 | 0.00 | 0.00 | 0.00 | 46 | 1051.9 |
| 20260507160947 | 58 | 327 | 6.1 | 8.7 | 0.00 | 0.00 | 0.00 | 46 | 1051.9 |
| 20260507160443 | 58 | 282 | 6.1 | 7.8 | 0.00 | 0.00 | 0.00 | 44 | 1051.8 |
| 20260507155939 | 58 | 312 | 5.2 | 6.1 | 0.00 | 0.00 | 0.00 | 45 | 1051.9 |
| 20260507155435 | 57 | 283 | 3.5 | 7.8 | 0.00 | 0.00 | 0.00 | 47 | 1051.8 |
| 20260507154932 | 56 | 328 | 4.3 | 7.0 | 0.00 | 0.00 | 0.00 | 53 | 1051.9 |
| 20260507154429 | 56 | 12 | 2.6 | 7.8 | 0.00 | 0.00 | 0.00 | 44 | 1052.0 |
| 20260507153927 | 56 | 317 | 7.0 | 8.7 | 0.00 | 0.00 | 0.00 | 48 | 1051.8 |
| 20260507153423 | 57 | 337 | 7.0 | 8.7 | 0.00 | 0.00 | 0.00 | 52 | 1051.7 |
| 20260507152919 | 56 | 348 | 3.5 | 5.2 | 0.00 | 0.00 | 0.00 | 46 | 1051.8 |
| 20260507152415 | 56 | 288 | 4.3 | 9.6 | 0.00 | 0.00 | 0.00 | 48 | 1051.4 |
| 20260507151911 | 56 | 322 | 3.5 | 6.1 | 0.00 | 0.00 | 0.00 | 48 | 1051.8 |
| 20260507151408 | 56 | 345 | 4.3 | 7.8 | 0.00 | 0.00 | 0.00 | 51 | 1051.6 |
| 20260507150905 | 56 | 319 | 7.8 | 9.6 | 0.00 | 0.00 | 0.00 | 48 | 1051.7 |
| 20260507150402 | 55 | 335 | 5.2 | 8.7 | 0.00 | 0.00 | 0.00 | 48 | 1051.8 |
| 20260507145858 | 55 | 301 | 6.1 | 8.7 | 0.00 | 0.00 | 0.00 | 49 | 1051.7 |
| 20260507145354 | 55 | 311 | 4.3 | 7.0 | 0.00 | 0.00 | 0.00 | 48 | 1051.6 |
| 20260507144852 | 55 | 285 | 4.3 | 7.0 | 0.00 | 0.00 | 0.00 | 54 | 1051.7 |
| 20260507144349 | 55 | 296 | 4.3 | 6.1 | 0.00 | 0.00 | 0.00 | 52 | 1051.6 |
| 20260507143845 | 55 | 324 | 4.3 | 7.0 | 0.00 | 0.00 | 0.00 | 50 | 1051.5 |
| 20260507143343 | 55 | 320 | 3.5 | 7.0 | 0.00 | 0.00 | 0.00 | 49 | 1051.5 |
| 20260507142839 | 55 | 334 | 2.6 | 6.1 | 0.00 | 0.00 | 0.00 | 49 | 1051.6 |
| 20260507142335 | 54 | 306 | 6.1 | 8.7 | 0.00 | 0.00 | 0.00 | 55 | 1051.5 |
| 20260507141832 | 55 | 308 | 6.1 | 8.7 | 0.00 | 0.00 | 0.00 | 50 | 1051.6 |
| 20260507141328 | 55 | 348 | 6.1 | 7.8 | 0.00 | 0.00 | 0.00 | 50 | 1051.7 |
| 20260507140825 | 54 | 330 | 7.8 | 9.6 | 0.00 | 0.00 | 0.00 | 52 | 1051.5 |
| 20260507140322 | 54 | 20 | 6.1 | 7.8 | 0.00 | 0.00 | 0.00 | 51 | 1051.5 |
| 20260507135820 | 54 | 3 | 4.3 | 7.8 | 0.00 | 0.00 | 0.00 | 55 | 1051.7 |
| 20260507135316 | 54 | 15 | 4.3 | 7.0 | 0.00 | 0.00 | 0.00 | 53 | 1051.7 |
| 20260507134814 | 53 | 7 | 2.6 | 7.8 | 0.00 | 0.00 | 0.00 | 56 | 1051.7 |
| 20260507134309 | 53 | 11 | 4.3 | 7.8 | 0.00 | 0.00 | 0.00 | 54 | 1051.6 |
| 20260507133805 | 53 | 39 | 3.5 | 6.1 | 0.00 | 0.00 | 0.00 | 55 | 1051.6 |
| 20260507133302 | 53 | 12 | 3.5 | 6.1 | 0.00 | 0.00 | 0.00 | 55 | 1051.4 |
| 20260507132800 | 52 | 11 | 4.3 | 6.1 | 0.00 | 0.00 | 0.00 | 56 | 1051.6 |
| 20260507132256 | 53 | 13 | 5.2 | 6.1 | 0.00 | 0.00 | 0.00 | 56 | 1051.5 |
| 20260507131753 | 52 | 358 | 1.7 | 3.5 | 0.00 | 0.00 | 0.00 | 58 | 1051.5 |
| 20260507131250 | 52 | 22 | 4.3 | 6.1 | 0.00 | 0.00 | 0.00 | 58 | 1051.7 |
| 20260507130747 | 51 | 23 | 3.5 | 5.2 | 0.00 | 0.00 | 0.00 | 59 | 1051.5 |
| 20260507130244 | 51 | 352 | 1.7 | 5.2 | 0.00 | 0.00 | 0.00 | 63 | 1051.4 |
| 20260507125743 | 51 | 340 | 3.5 | 7.0 | 0.00 | 0.00 | 0.00 | 61 | 1051.5 |
| 20260507125240 | 50 | 330 | 5.2 | 7.0 | 0.00 | 0.00 | 0.00 | 61 | 1051.7 |
| 20260507124737 | 50 | 348 | 3.5 | 6.1 | 0.00 | 0.00 | 0.00 | 65 | 1051.4 |
| 20260507124234 | 50 | 15 | 5.2 | 6.1 | 0.00 | 0.00 | 0.00 | 65 | 1051.6 |
| 20260507123732 | 49 | 12 | 6.1 | 7.8 | 0.00 | 0.00 | 0.00 | 64 | 1051.8 |
| 20260507123229 | 49 | 337 | 6.1 | 7.0 | 0.00 | 0.00 | 0.00 | 65 | 1051.7 |
| 20260507122724 | 49 | 23 | 5.2 | 7.0 | 0.00 | 0.00 | 0.00 | 64 | 1051.7 |
| 20260507122221 | 48 | 334 | 7.0 | 7.8 | 0.00 | 0.00 | 0.00 | 67 | 1051.6 |
| 20260507121716 | 48 | 313 | 4.3 | 6.1 | 0.00 | 0.00 | 0.00 | 69 | 1051.8 |
| 20260507121212 | 48 | 324 | 1.7 | 5.2 | 0.00 | 0.00 | 0.00 | 72 | 1051.9 |
| 20260507120709 | 47 | 345 | 3.5 | 6.1 | 0.00 | 0.00 | 0.00 | 73 | 1051.7 |
| 20260507120206 | 47 | 331 | 3.5 | 5.2 | 0.00 | 0.00 | 0.00 | 73 | 1051.8 |
| 20260507115702 | 47 | 342 | 2.6 | 6.1 | 0.00 | 0.00 | 0.00 | 73 | 1051.9 |
| 20260507115158 | 47 | 13 | 1.7 | 5.2 | 0.00 | 0.00 | 0.00 | 75 | 1051.6 |
| 20260507114654 | 46 | 335 | 3.5 | 5.2 | 0.00 | 0.00 | 0.00 | 74 | 1051.6 |
| 20260507114151 | 46 | 328 | 2.6 | 6.1 | 0.00 | 0.00 | 0.00 | 74 | 1051.8 |
| 20260507113648 | 46 | 337 | 1.7 | 3.5 | 0.00 | 0.00 | 0.00 | 76 | 1051.7 |
| 20260507113145 | 46 | 320 | 2.6 | 5.2 | 0.00 | 0.00 | 0.00 | 77 | 1051.6 |
| 20260507112643 | 46 | 328 | 1.7 | 3.5 | 0.00 | 0.00 | 0.00 | 78 | 1051.5 |
| 20260507112139 | 45 | 330 | 1.7 | 3.5 | 0.00 | 0.00 | 0.00 | 79 | 1051.6 |
| 20260507111637 | 45 | 322 | 3.5 | 3.5 | 0.00 | 0.00 | 0.00 | 79 | 1051.3 |
| 20260507111133 | 45 | 337 | 2.6 | 3.5 | 0.00 | 0.00 | 0.00 | 79 | 1051.1 |
| 20260507110629 | 45 | 344 | 3.5 | 5.2 | 0.00 | 0.00 | 0.00 | 81 | 1051.2 |
| 20260507110126 | 45 | 325 | 1.7 | 2.6 | 0.00 | 0.00 | 0.00 | 82 | 1051.2 |
| 20260507105623 | 44 | 322 | 2.6 | 2.6 | 0.00 | 0.00 | 0.00 | 83 | 1051.1 |
| 20260507105119 | 44 | 321 | 0.9 | 2.6 | 0.00 | 0.00 | 0.00 | 84 | 1050.9 |
| 20260507104617 | 44 | 314 | 0.9 | 1.7 | 0.00 | 0.00 | 0.00 | 84 | 1050.8 |
| 20260507104113 | 44 | 317 | 0.9 | 1.7 | 0.00 | 0.00 | 0.00 | 84 | 1050.9 |
| 20260507103609 | 44 | 316 | 0.9 | 1.7 | 0.00 | 0.00 | 0.00 | 85 | 1050.9 |
| 20260507103106 | 44 | 308 | 1.7 | 1.7 | 0.00 | 0.00 | 0.00 | 84 | 1050.8 |
| 20260507102602 | 44 | 321 | 1.7 | 2.6 | 0.00 | 0.00 | 0.00 | 84 | 1050.7 |
| 20260507102059 | 44 | 321 | 0.9 | 0.9 | 0.00 | 0.00 | 0.00 | 85 | 1050.8 |
| 20260507101554 | 44 | 322 | 0.9 | 0.9 | 0.00 | 0.00 | 0.00 | 85 | 1050.7 |
| 20260507101051 | 44 | 322 | 0.9 | 0.9 | 0.00 | 0.00 | 0.00 | 86 | 1050.7 |
| 20260507100548 | 44 | 322 | 0.0 | 0.9 | 0.00 | 0.00 | 0.00 | 86 | 1050.8 |
| 20260507100046 | 44 | 322 | 0.0 | 0.9 | 0.00 | 0.00 | 0.00 | 86 | 1050.8 |
| 20260507095544 | 44 | 322 | 0.0 | 0.9 | 0.00 | 0.00 | 0.00 | 86 | 1050.8 |
| 20260507095040 | 44 | 322 | 0.0 | 0.9 | 0.00 | 0.00 | 0.00 | 86 | 1051.1 |
| 20260507094536 | 44 | 322 | 0.0 | 0.9 | 0.00 | 0.00 | 0.00 | 86 | 1050.5 |
| 20260507094034 | 44 | 322 | 0.0 | 0.0 | 0.00 | 0.00 | 0.00 | 85 | 1050.5 |
| 20260507093531 | 45 | 322 | 0.0 | 0.0 | 0.00 | 0.00 | 0.00 | 84 | 1050.8 |
| 20260507093030 | 45 | 322 | 0.0 | 0.0 | 0.00 | 0.00 | 0.00 | 83 | 1050.8 |
| 20260507092525 | 45 | 322 | 0.0 | 0.9 | 0.00 | 0.00 | 0.00 | 83 | 1050.9 |
| 20260507092022 | 46 | 322 | 0.9 | 0.9 | 0.00 | 0.00 | 0.00 | 82 | 1050.7 |
| 20260507091519 | 46 | 323 | 0.0 | 0.0 | 0.00 | 0.00 | 0.00 | 82 | 1050.7 |
| 20260507091015 | 46 | 322 | 0.0 | 0.0 | 0.00 | 0.00 | 0.00 | 82 | 1050.9 |
| 20260507090511 | 46 | 323 | 0.0 | 0.9 | 0.00 | 0.00 | 0.00 | 81 | 1050.7 |
| 20260507090008 | 46 | 322 | 0.0 | 0.9 | 0.00 | 0.00 | 0.00 | 80 | 1050.4 |
| 20260507085505 | 47 | 323 | 0.0 | 1.7 | 0.00 | 0.00 | 0.00 | 79 | 1050.8 |
| 20260507085002 | 47 | 323 | 0.9 | 1.7 | 0.00 | 0.00 | 0.00 | 79 | 1050.3 |
| 20260507084459 | 47 | 324 | 0.9 | 0.9 | 0.00 | 0.00 | 0.00 | 80 | 1050.5 |
| 20260507083955 | 46 | 321 | 1.7 | 1.7 | 0.00 | 0.00 | 0.00 | 80 | 1050.7 |
| 20260507083452 | 46 | 295 | 0.9 | 0.9 | 0.00 | 0.00 | 0.00 | 81 | 1050.5 |
| 20260507082948 | 47 | 300 | 0.9 | 0.9 | 0.00 | 0.00 | 0.00 | 79 | 1050.7 |
| 20260507082444 | 47 | 320 | 0.9 | 0.9 | 0.00 | 0.00 | 0.00 | 78 | 1050.4 |
| 20260507081941 | 47 | 319 | 0.0 | 0.9 | 0.00 | 0.00 | 0.00 | 77 | 1050.1 |
| 20260507081438 | 48 | 322 | 0.9 | 1.7 | 0.00 | 0.00 | 0.00 | 77 | 1050.3 |
| 20260507080935 | 47 | 320 | 0.9 | 1.7 | 0.00 | 0.00 | 0.00 | 77 | 1050.2 |
| 20260507080431 | 48 | 322 | 1.7 | 2.6 | 0.00 | 0.00 | 0.00 | 77 | 1050.2 |
| 20260507075926 | 48 | 326 | 1.7 | 2.6 | 0.00 | 0.00 | 0.00 | 77 | 1050.2 |
| 20260507075422 | 48 | 315 | 1.7 | 1.7 | 0.00 | 0.00 | 0.00 | 77 | 1050.2 |
| 20260507074919 | 48 | 323 | 0.9 | 2.6 | 0.00 | 0.00 | 0.00 | 77 | 1050.1 |
| 20260507074416 | 48 | 327 | 1.7 | 1.7 | 0.00 | 0.00 | 0.00 | 77 | 1050.2 |
| 20260507073914 | 48 | 316 | 1.7 | 1.7 | 0.00 | 0.00 | 0.00 | 77 | 1050.1 |
| 20260507073410 | 48 | 319 | 1.7 | 1.7 | 0.00 | 0.00 | 0.00 | 77 | 1050.1 |
| 20260507072907 | 48 | 318 | 0.9 | 1.7 | 0.00 | 0.00 | 0.00 | 77 | 1050.3 |
| 20260507072404 | 48 | 310 | 0.0 | 0.9 | 0.00 | 0.00 | 0.00 | 78 | 1050.2 |
| 20260507071902 | 48 | 313 | 0.9 | 1.7 | 0.00 | 0.00 | 0.00 | 77 | 1050.5 |
| 20260507071359 | 48 | 314 | 0.9 | 1.7 | 0.00 | 0.00 | 0.00 | 77 | 1050.4 |
| 20260507070855 | 49 | 314 | 0.9 | 1.7 | 0.00 | 0.00 | 0.00 | 76 | 1050.2 |
| 20260507070353 | 49 | 319 | 0.9 | 0.9 | 0.00 | 0.00 | 0.00 | 77 | 1050.2 |
| 20260507065849 | 49 | 323 | 0.9 | 0.9 | 0.00 | 0.00 | 0.00 | 77 | 1050.2 |
| 20260507065346 | 49 | 327 | 0.9 | 1.7 | 0.00 | 0.00 | 0.00 | 77 | 1050.2 |
| 20260507064843 | 48 | 331 | 0.9 | 0.9 | 0.00 | 0.00 | 0.00 | 78 | 1050.4 |
| 20260507064342 | 49 | 333 | 0.9 | 1.7 | 0.00 | 0.00 | 0.00 | 78 | 1050.3 |
| 20260507063839 | 49 | 335 | 0.0 | 0.9 | 0.00 | 0.00 | 0.00 | 77 | 1050.4 |
| 20260507063335 | 49 | 335 | 0.9 | 0.9 | 0.00 | 0.00 | 0.00 | 76 | 1050.8 |
| 20260507062832 | 49 | 335 | 0.9 | 1.7 | 0.00 | 0.00 | 0.00 | 77 | 1050.1 |
| 20260507062329 | 48 | 325 | 0.9 | 1.7 | 0.00 | 0.00 | 0.00 | 78 | 1050.3 |
| 20260507061827 | 49 | 323 | 0.0 | 0.0 | 0.00 | 0.00 | 0.00 | 80 | 1050.5 |
| 20260507061325 | 49 | 323 | 0.0 | 0.0 | 0.00 | 0.00 | 0.00 | 78 | 1050.5 |
| 20260507060823 | 50 | 323 | 0.0 | 0.0 | 0.00 | 0.00 | 0.00 | 76 | 1051.1 |
| 20260507060320 | 49 | 324 | 0.0 | 0.9 | 0.00 | 0.00 | 0.00 | 75 | 1051.0 |
| 20260507055816 | 49 | 324 | 0.9 | 0.9 | 0.00 | 0.00 | 0.00 | 76 | 1050.9 |
| 20260507055311 | 50 | 324 | 0.0 | 0.9 | 0.00 | 0.00 | 0.00 | 77 | 1050.8 |
| 20260507054808 | 50 | 324 | 0.0 | 0.9 | 0.00 | 0.00 | 0.00 | 75 | 1050.5 |
| 20260507054305 | 50 | 327 | 0.0 | 0.9 | 0.00 | 0.00 | 0.00 | 73 | 1050.5 |
| 20260507053802 | 51 | 327 | 0.9 | 0.9 | 0.00 | 0.00 | 0.00 | 73 | 1050.4 |
| 20260507053259 | 51 | 328 | 0.9 | 0.9 | 0.00 | 0.00 | 0.00 | 73 | 1050.3 |
| 20260507052758 | 51 | 327 | 0.0 | 1.7 | 0.00 | 0.00 | 0.00 | 72 | 1050.4 |
| 20260507052254 | 51 | 343 | 0.9 | 1.7 | 0.00 | 0.00 | 0.00 | 73 | 1050.3 |
| 20260507051753 | 51 | 321 | 1.7 | 2.6 | 0.00 | 0.00 | 0.00 | 72 | 1050.3 |
| 20260507051249 | 51 | 318 | 0.9 | 1.7 | 0.00 | 0.00 | 0.00 | 73 | 1050.5 |
| 20260507050746 | 51 | 322 | 1.7 | 1.7 | 0.00 | 0.00 | 0.00 | 73 | 1050.7 |
| 20260507050243 | 51 | 327 | 0.9 | 1.7 | 0.00 | 0.00 | 0.00 | 72 | 1050.7 |
| 20260507045740 | 51 | 321 | 1.7 | 1.7 | 0.00 | 0.00 | 0.00 | 72 | 1050.5 |
| 20260507045235 | 51 | 329 | 1.7 | 1.7 | 0.00 | 0.00 | 0.00 | 71 | 1050.5 |
| 20260507044733 | 51 | 307 | 0.0 | 0.9 | 0.00 | 0.00 | 0.00 | 74 | 1050.5 |
| 20260507044229 | 50 | 301 | 0.0 | 0.0 | 0.00 | 0.00 | 0.00 | 74 | 1050.5 |
| 20260507043726 | 51 | 300 | 0.0 | 0.0 | 0.00 | 0.00 | 0.00 | 75 | 1050.7 |
| 20260507043223 | 51 | 300 | 0.0 | 0.0 | 0.00 | 0.00 | 0.00 | 71 | 1050.9 |
| 20260507042719 | 51 | 300 | 0.0 | 0.0 | 0.00 | 0.00 | 0.00 | 71 | 1051.0 |
| 20260507042214 | 51 | 300 | 0.0 | 0.0 | 0.00 | 0.00 | 0.00 | 70 | 1050.8 |
| 20260507041712 | 52 | 300 | 0.0 | 0.0 | 0.00 | 0.00 | 0.00 | 70 | 1050.7 |
| 20260507041208 | 52 | 300 | 0.0 | 0.0 | 0.00 | 0.00 | 0.00 | 70 | 1050.9 |
| 20260507040705 | 52 | 300 | 0.0 | 0.0 | 0.00 | 0.00 | 0.00 | 69 | 1051.1 |
| 20260507040201 | 52 | 300 | 0.0 | 0.0 | 0.00 | 0.00 | 0.00 | 69 | 1050.9 |
| 20260507035657 | 52 | 300 | 0.0 | 0.9 | 0.00 | 0.52 | 0.52 | 69 | 1051.4 |
| 20260507035153 | 52 | 300 | 0.0 | 0.9 | 0.00 | 0.52 | 0.52 | 70 | 1051.2 |
| 20260507034650 | 52 | 300 | 0.0 | 0.0 | 0.00 | 0.52 | 0.52 | 70 | 1051.0 |
| 20260507034148 | 52 | 299 | 0.0 | 0.0 | 0.00 | 0.52 | 0.52 | 69 | 1051.3 |
| 20260507033646 | 52 | 299 | 0.0 | 0.9 | 0.00 | 0.52 | 0.52 | 69 | 1051.2 |
| 20260507033143 | 52 | 301 | 0.0 | 0.0 | 0.00 | 0.52 | 0.52 | 70 | 1051.1 |
| 20260507032641 | 52 | 301 | 0.0 | 0.0 | 0.00 | 0.52 | 0.52 | 70 | 1051.0 |
| 20260507032136 | 53 | 301 | 0.0 | 0.9 | 0.00 | 0.52 | 0.52 | 70 | 1051.1 |
| 20260507031633 | 53 | 304 | 0.9 | 0.9 | 0.00 | 0.52 | 0.52 | 69 | 1050.9 |
| 20260507031130 | 53 | 302 | 0.0 | 0.9 | 0.00 | 0.52 | 0.52 | 68 | 1051.0 |
| 20260507030626 | 53 | 304 | 0.9 | 1.7 | 0.00 | 0.52 | 0.52 | 67 | 1051.0 |
| 20260507030124 | 53 | 308 | 0.9 | 1.7 | 0.00 | 0.52 | 0.52 | 67 | 1051.2 |
| 20260507025621 | 53 | 317 | 0.9 | 0.9 | 0.00 | 0.52 | 0.52 | 66 | 1051.2 |
| 20260507025118 | 54 | 312 | 0.9 | 3.5 | 0.00 | 0.52 | 0.52 | 65 | 1050.8 |
| 20260507024616 | 54 | 321 | 1.7 | 3.5 | 0.00 | 0.52 | 0.52 | 64 | 1050.5 |
| 20260507024113 | 54 | 322 | 1.7 | 2.6 | 0.00 | 0.52 | 0.52 | 64 | 1050.5 |
| 20260507023608 | 54 | 318 | 2.6 | 3.5 | 0.00 | 0.52 | 0.52 | 64 | 1050.7 |
| 20260507023106 | 54 | 337 | 3.5 | 5.2 | 0.00 | 0.52 | 0.52 | 64 | 1050.4 |
| 20260507022603 | 55 | 336 | 1.7 | 3.5 | 0.00 | 0.52 | 0.52 | 64 | 1050.1 |
| 20260507022058 | 55 | 326 | 3.5 | 6.1 | 0.00 | 0.52 | 0.52 | 64 | 1050.2 |
| 20260507021555 | 55 | 328 | 3.5 | 5.2 | 0.00 | 0.52 | 0.52 | 63 | 1050.0 |
| 20260507021051 | 55 | 313 | 4.3 | 6.1 | 0.00 | 0.52 | 0.52 | 65 | 1049.9 |
| 20260507020549 | 55 | 334 | 1.7 | 5.2 | 0.00 | 0.52 | 0.52 | 66 | 1050.1 |
| 20260507020045 | 55 | 307 | 2.6 | 2.6 | 0.00 | 0.52 | 0.52 | 68 | 1049.9 |
| 20260507015544 | 55 | 316 | 3.5 | 3.5 | 0.00 | 0.52 | 0.52 | 69 | 1049.8 |
| 20260507015041 | 55 | 310 | 1.7 | 2.6 | 0.00 | 0.52 | 0.52 | 70 | 1049.9 |
| 20260507014537 | 55 | 329 | 1.7 | 1.7 | 0.00 | 0.52 | 0.52 | 71 | 1049.7 |
| 20260507014033 | 55 | 308 | 0.9 | 0.9 | 0.00 | 0.52 | 0.52 | 70 | 1049.8 |
| 20260507013530 | 56 | 301 | 0.9 | 1.7 | 0.00 | 0.52 | 0.52 | 70 | 1049.8 |
| 20260507013027 | 56 | 296 | 0.9 | 0.9 | 0.00 | 0.52 | 0.52 | 69 | 1049.8 |
| 20260507012524 | 56 | 297 | 0.9 | 1.7 | 0.00 | 0.52 | 0.52 | 69 | 1050.0 |
| 20260507012020 | 56 | 307 | 0.9 | 1.7 | 0.00 | 0.52 | 0.52 | 70 | 1050.0 |
| 20260507011518 | 56 | 278 | 1.7 | 1.7 | 0.00 | 0.52 | 0.52 | 67 | 1049.9 |
| 20260507011014 | 56 | 288 | 0.9 | 1.7 | 0.00 | 0.52 | 0.52 | 67 | 1050.0 |
| 20260507010508 | 56 | 299 | 0.9 | 0.9 | 0.00 | 0.52 | 0.52 | 69 | 1049.8 |
| 20260507010005 | 56 | 281 | 0.9 | 0.9 | 0.00 | 0.52 | 0.52 | 70 | 1049.9 |
| 20260507005503 | 56 | 279 | 0.9 | 0.9 | 0.00 | 0.52 | 0.52 | 68 | 1049.9 |
| 20260507004959 | 56 | 255 | 0.9 | 0.9 | 0.00 | 0.52 | 0.52 | 65 | 1049.8 |
| 20260507004456 | 56 | 262 | 0.9 | 0.9 | 0.00 | 0.52 | 0.52 | 65 | 1049.9 |
| 20260507003954 | 56 | 296 | 0.0 | 0.9 | 0.00 | 0.52 | 0.52 | 65 | 1049.9 |
| 20260507003448 | 56 | 297 | 0.0 | 0.0 | 0.00 | 0.52 | 0.52 | 65 | 1049.6 |
| 20260507002944 | 56 | 303 | 0.9 | 0.9 | 0.00 | 0.52 | 0.52 | 64 | 1049.8 |
| 20260507002441 | 56 | 310 | 0.9 | 0.9 | 0.00 | 0.52 | 0.52 | 64 | 1049.6 |
| 20260507001937 | 57 | 309 | 0.9 | 1.7 | 0.00 | 0.52 | 0.52 | 63 | 1049.6 |
| 20260507001433 | 57 | 328 | 1.7 | 1.7 | 0.00 | 0.52 | 0.52 | 62 | 1049.4 |
| 20260507000931 | 57 | 296 | 0.9 | 0.9 | 0.00 | 0.52 | 0.52 | 64 | 1049.6 |
| 20260507000427 | 57 | 312 | 0.9 | 1.7 | 0.00 | 0.52 | 0.52 | 63 | 1049.4 |
| 20260506235922 | 57 | 330 | 2.6 | 3.5 | 0.00 | 0.52 | 0.52 | 61 | 1049.2 |
| 20260506235420 | 57 | 323 | 1.7 | 2.6 | 0.00 | 0.52 | 0.52 | 61 | 1049.3 |
| 20260506234915 | 57 | 331 | 1.7 | 2.6 | 0.00 | 0.52 | 0.52 | 61 | 1049.6 |
| 20260506234414 | 57 | 281 | 0.9 | 2.6 | 0.00 | 0.52 | 0.52 | 61 | 1049.7 |
| 20260506233911 | 57 | 288 | 1.7 | 6.1 | 0.00 | 0.52 | 0.52 | 60 | 1049.6 |
| 20260506233407 | 57 | 313 | 4.3 | 6.1 | 0.00 | 0.52 | 0.52 | 60 | 1049.2 |
| 20260506232904 | 58 | 327 | 2.6 | 5.2 | 0.00 | 0.52 | 0.52 | 60 | 1048.9 |
| 20260506232400 | 58 | 346 | 3.5 | 5.2 | 0.00 | 0.52 | 0.52 | 59 | 1048.8 |
| 20260506231856 | 58 | 329 | 3.5 | 3.5 | 0.00 | 0.52 | 0.52 | 60 | 1049.1 |
| 20260506231354 | 58 | 320 | 4.3 | 5.2 | 0.00 | 0.52 | 0.52 | 60 | 1049.2 |
| 20260506230851 | 58 | 327 | 5.2 | 6.1 | 0.00 | 0.52 | 0.52 | 61 | 1049.2 |
| 20260506230348 | 58 | 311 | 3.5 | 7.0 | 0.00 | 0.52 | 0.52 | 61 | 1049.4 |
| 20260506225844 | 58 | 326 | 3.5 | 5.2 | 0.00 | 0.52 | 0.52 | 62 | 1049.2 |
| 20260506225341 | 58 | 8 | 5.2 | 6.1 | 0.00 | 0.52 | 0.52 | 60 | 1048.9 |
| 20260506224838 | 59 | 319 | 3.5 | 5.2 | 0.00 | 0.52 | 0.52 | 62 | 1048.5 |
| 20260506224335 | 59 | 354 | 3.5 | 3.5 | 0.00 | 0.52 | 0.52 | 59 | 1048.3 |
| 20260506223832 | 59 | 313 | 4.3 | 7.8 | 0.00 | 0.52 | 0.52 | 61 | 1048.6 |
| 20260506223327 | 59 | 330 | 3.5 | 6.1 | 0.00 | 0.52 | 0.52 | 60 | 1048.5 |
| 20260506222824 | 59 | 298 | 5.2 | 7.0 | 0.00 | 0.52 | 0.52 | 62 | 1049.0 |
| 20260506222319 | 60 | 321 | 5.2 | 7.0 | 0.00 | 0.52 | 0.52 | 62 | 1048.7 |
| 20260506221813 | 60 | 320 | 3.5 | 5.2 | 0.00 | 0.52 | 0.52 | 64 | 1048.3 |
| 20260506221310 | 60 | 319 | 3.5 | 3.5 | 0.00 | 0.52 | 0.52 | 64 | 1048.3 |
| 20260506220808 | 60 | 324 | 1.7 | 1.7 | 0.00 | 0.52 | 0.52 | 65 | 1048.0 |
| 20260506220307 | 60 | 313 | 1.7 | 2.6 | 0.00 | 0.52 | 0.52 | 67 | 1048.1 |
| 20260506215804 | 60 | 320 | 3.5 | 3.5 | 0.00 | 0.52 | 0.52 | 68 | 1048.2 |
| 20260506215300 | 60 | 304 | 0.9 | 2.6 | 0.00 | 0.52 | 0.52 | 65 | 1048.2 |
| 20260506214756 | 60 | 303 | 0.9 | 1.7 | 0.00 | 0.52 | 0.52 | 66 | 1048.5 |
| 20260506214253 | 60 | 296 | 0.9 | 1.7 | 0.00 | 0.52 | 0.52 | 66 | 1048.6 |
| 20260506213752 | 60 | 318 | 0.9 | 1.7 | 0.00 | 0.52 | 0.52 | 66 | 1048.6 |
| 20260506213248 | 60 | 267 | 3.5 | 3.5 | 0.00 | 0.52 | 0.52 | 65 | 1049.0 |
| 20260506212746 | 60 | 265 | 1.7 | 2.6 | 0.00 | 0.52 | 0.52 | 64 | 1049.0 |
| 20260506212241 | 60 | 256 | 2.6 | 2.6 | 0.00 | 0.52 | 0.52 | 63 | 1049.0 |
| 20260506211737 | 60 | 317 | 2.6 | 3.5 | 0.00 | 0.52 | 0.52 | 64 | 1048.9 |
| 20260506211233 | 60 | 332 | 2.6 | 5.2 | 0.00 | 0.52 | 0.52 | 64 | 1048.7 |
| 20260506210731 | 60 | 289 | 0.9 | 3.5 | 0.00 | 0.52 | 0.52 | 65 | 1048.7 |
| 20260506210227 | 60 | 326 | 4.3 | 5.2 | 0.00 | 0.52 | 0.52 | 63 | 1048.7 |
| 20260506205724 | 60 | 311 | 2.6 | 2.6 | 0.00 | 0.52 | 0.52 | 66 | 1048.7 |
| 20260506205220 | 60 | 329 | 1.7 | 3.5 | 0.00 | 0.52 | 0.52 | 66 | 1048.7 |
| 20260506204717 | 60 | 315 | 2.6 | 3.5 | 0.00 | 0.52 | 0.52 | 64 | 1048.5 |
| 20260506204214 | 60 | 314 | 2.6 | 3.5 | 0.00 | 0.52 | 0.52 | 66 | 1048.7 |
| 20260506203712 | 60 | 318 | 3.5 | 5.2 | 0.00 | 0.52 | 0.52 | 65 | 1048.5 |
| 20260506203209 | 60 | 6 | 1.7 | 2.6 | 0.00 | 0.52 | 0.52 | 64 | 1048.3 |
| 20260506202707 | 60 | 326 | 1.7 | 2.6 | 0.00 | 0.52 | 0.52 | 63 | 1048.6 |